Home   Weather   Viña del Mar   Past weeks

Flag for Chile Past Weather in Viña del Mar, Chile — Yesterday and Last 2 Weeks

Now
86 °F

Clear.


Feels Like: 85 °F
Forecast: N/A
Wind: 21 mph from Southwest

Location: Pudahuel

Current Time: Jan 22, 2017 at 5:51:49 pm

Latest Report: Jan 22, 2017 at 5:00 pm


Visibility: 5 mi

Pressure: 29.98 "Hg

Humidity: 38%

Dew Point: 57 °F

Location of Viña del MarLocation

Past Weather in Viña del Mar — Graph

°F

Viña del Mar Temperature Yesterday

Maximum temperature yesterday: 95 °F (at 3:00 pm)
Minimum temperature yesterday: 64 °F (at 8:00 am)
Average temperature yesterday: 78 °F

High & Low Weather Summary for the Past Weeks

 TemperatureHumidityPressure
High99 °F (Jan 20, 4:00 pm)68% (Jan 9, 6:00 am)30.07 "Hg (Jan 9, 6:00 am)
Low55 °F (Jan 16, 8:00 am)13% (Jan 19, 4:00 pm)29.80 "Hg (Jan 14, 4:00 am)
Average76 °F38%29.92 "Hg
* Reported Jan 7 4:00 pm — Jan 22 4:00 pm, Viña del Mar, Weather by CustomWeather, © 2017

Note: Actual official high and low records may vary slightly from our data, if they occured in-between our weather recording intervals... More about our weather records

Advertising

Viña del Mar Weather History for the Previous 24 Hours

Scroll right to see more
 ConditionsComfort  
Time TempWeatherWind HumidityBarometerVisibility
4:00 pm
Sun, Jan 22
86 °FPassing clouds.15 mph35%29.98 "HgN/A
3:00 pm86 °FPassing clouds.12 mph35%29.98 "HgN/A
2:00 pm84 °FClear.10 mph37%30.01 "Hg5 mi
1:00 pm82 °FClear.7 mph37%30.01 "Hg4 mi
12:00 pm79 °FClear.2 mph39%30.01 "Hg4 mi
11:00 am75 °FClear.3 mph44%30.01 "Hg5 mi
10:00 am70 °FClear.3 mph57%30.04 "Hg5 mi
9:00 am68 °FClear.2 mph60%30.01 "Hg5 mi
8:00 am64 °FClear.2 mph68%30.01 "Hg4 mi
7:00 am63 °FClear.3 mph68%29.98 "Hg5 mi
6:00 am63 °FClear.2 mph68%29.95 "Hg5 mi
5:00 am64 °FClear.No wind60%29.95 "Hg5 mi
4:00 am66 °FClear.1 mph56%29.95 "Hg5 mi
3:00 am66 °FClear.3 mph60%29.98 "Hg5 mi
2:00 am68 °FClear.8 mph53%29.98 "Hg5 mi
1:00 am70 °FClear.6 mph50%29.98 "Hg5 mi
12:00 am72 °FClear.8 mph50%29.98 "Hg5 mi
11:00 pm
Sat, Jan 21
72 °FClear.13 mph50%29.98 "Hg5 mi
10:00 pm73 °FClear.15 mph50%29.98 "Hg5 mi
9:00 pm77 °FClear.12 mph44%29.92 "Hg5 mi
8:00 pm82 °FClear.15 mph40%29.89 "Hg5 mi
7:00 pm86 °FClear.20 mph35%29.89 "Hg4 mi
6:00 pm90 °FClear.21 mph31%29.89 "Hg4 mi
5:00 pm91 °FClear.18 mph30%29.89 "Hg5 mi
Weather by CustomWeather, © 2017

See weather overviewHow to use our weather pages